TimeEST,TemperatureF,Dew PointF,Humidity,Sea Level PressureIn,VisibilityMPH,Wind Direction,Wind SpeedMPH,Gust SpeedMPH,PrecipitationIn,Events,Conditions,WindDirDegrees,DateUTC
12:30 AM,28.4,28.4,100,29.88,1.0,Calm,Calm,-,0.10,Snow,Light Snow,0,2012-03-03 05:30:00
12:41 AM,28.4,28.4,100,29.87,1.2,ESE,3.5,-,0.12,Snow,Light Snow,110,2012-03-03 05:41:00
12:52 AM,28.9,28.0,96,29.89,1.5,Calm,Calm,-,0.15,Snow,Light Snow,0,2012-03-03 05:52:00
12:58 AM,28.4,28.4,100,29.86,3.0,East,3.5,-,0.00,Snow,Light Snow,100,2012-03-03 05:58:00
1:18 AM,30.2,28.4,93,29.85,6.0,ESE,3.5,-,0.02,,Overcast,120,2012-03-03 06:18:00
1:52 AM,30.0,28.9,96,29.84,6.0,East,3.5,-,0.03,Rain,Light Freezing Rain,80,2012-03-03 06:52:00
2:52 AM,32.0,30.0,92,29.80,4.0,SE,4.6,-,0.02,Rain,Light Freezing Rain,130,2012-03-03 07:52:00
3:52 AM,32.0,30.9,96,29.75,5.0,East,3.5,-,0.01,Rain,Light Freezing Rain,90,2012-03-03 08:52:00
3:59 AM,32.0,30.2,93,29.72,4.0,East,3.5,-,0.00,Rain,Light Freezing Rain,80,2012-03-03 08:59:00
4:26 AM,32.0,32.0,100,29.70,3.0,Calm,Calm,-,0.01,,Overcast,0,2012-03-03 09:26:00
4:52 AM,33.1,32.0,96,29.71,4.0,Variable,3.5,-,0.02,,Overcast,0,2012-03-03 09:52:00
5:44 AM,32.0,32.0,100,29.67,2.0,Calm,Calm,-,0.02,,Overcast,0,2012-03-03 10:44:00
5:52 AM,32.0,32.0,100,29.68,1.8,Calm,Calm,-,0.02,,Overcast,0,2012-03-03 10:52:00
6:09 AM,32.0,32.0,100,29.65,2.5,Calm,Calm,-,0.00,,Overcast,0,2012-03-03 11:09:00
6:16 AM,32.0,32.0,100,29.65,2.5,Calm,Calm,-,0.00,,Overcast,0,2012-03-03 11:16:00
6:37 AM,32.0,32.0,100,29.63,3.0,NNW,3.5,-,0.01,,Overcast,340,2012-03-03 11:37:00
6:40 AM,32.0,32.0,100,29.63,2.5,Calm,Calm,-,0.01,,Overcast,0,2012-03-03 11:40:00
6:52 AM,32.0,32.0,100,29.64,2.0,Calm,Calm,-,0.01,,Overcast,0,2012-03-03 11:52:00
6:58 AM,32.0,32.0,100,29.61,1.2,Calm,Calm,-,0.00,,Overcast,0,2012-03-03 11:58:00
7:14 AM,33.8,32.0,93,29.60,2.0,Calm,Calm,-,0.01,,Overcast,0,2012-03-03 12:14:00
7:52 AM,33.1,32.0,96,29.59,2.0,Calm,Calm,-,0.01,,Overcast,0,2012-03-03 12:52:00
8:00 AM,33.8,32.0,93,29.57,1.5,Calm,Calm,-,0.00,Rain,Light Rain,0,2012-03-03 13:00:00
8:14 AM,33.8,32.0,93,29.56,2.0,NW,4.6,-,0.00,,Overcast,320,2012-03-03 13:14:00
8:24 AM,33.8,33.8,100,29.54,3.0,Calm,Calm,-,0.00,Rain,Light Rain,0,2012-03-03 13:24:00
8:31 AM,33.8,33.8,100,29.53,2.5,Calm,Calm,-,0.00,Rain,Light Rain,0,2012-03-03 13:31:00
8:52 AM,33.1,32.0,96,29.54,2.5,Calm,Calm,-,0.01,Rain,Light Rain,0,2012-03-03 13:52:00
9:18 AM,33.8,33.8,100,29.51,1.5,Calm,Calm,-,0.00,Rain,Light Rain,0,2012-03-03 14:18:00
9:25 AM,33.8,33.8,100,29.51,1.2,Calm,Calm,-,0.00,Rain,Light Rain,0,2012-03-03 14:25:00
9:52 AM,33.1,33.1,100,29.52,1.5,NW,3.5,-,0.01,Rain,Light Rain,310,2012-03-03 14:52:00
10:06 AM,33.8,33.8,100,29.49,1.2,NNW,3.5,-,0.00,Rain,Light Rain,330,2012-03-03 15:06:00
10:11 AM,33.8,33.8,100,29.49,2.0,Calm,Calm,-,0.00,Rain,Light Rain,0,2012-03-03 15:11:00
10:30 AM,33.8,33.8,100,29.48,3.0,Calm,Calm,-,0.01,Rain,Light Rain,0,2012-03-03 15:30:00
10:41 AM,33.8,33.8,100,29.47,2.0,NW,3.5,-,0.01,Rain,Light Rain,320,2012-03-03 15:41:00
10:46 AM,33.8,32.0,93,29.47,1.2,NW,5.8,-,0.03,Rain,Light Rain,320,2012-03-03 15:46:00
10:52 AM,33.1,33.1,100,29.50,1.2,NW,8.1,-,0.04,Rain,Rain,310,2012-03-03 15:52:00
10:55 AM,33.8,33.8,100,29.48,2.0,NW,6.9,-,0.00,Rain,Light Rain,310,2012-03-03 15:55:00
11:03 AM,33.8,33.8,100,29.48,7.0,NW,5.8,-,0.00,Rain,Light Rain,310,2012-03-03 16:03:00
11:13 AM,33.8,33.8,100,29.47,10.0,Calm,Calm,-,0.00,Rain,Light Rain,0,2012-03-03 16:13:00
11:52 AM,33.1,33.1,100,29.48,8.0,Calm,Calm,-,0.00,,Overcast,0,2012-03-03 16:52:00
12:39 PM,33.8,33.8,100,29.41,9.0,Calm,Calm,-,N/A,,Overcast,0,2012-03-03 17:39:00
12:48 PM,35.6,33.8,93,29.41,10.0,Calm,Calm,-,N/A,,Overcast,0,2012-03-03 17:48:00
12:52 PM,35.1,34.0,96,29.42,10.0,Calm,Calm,-,N/A,,Overcast,0,2012-03-03 17:52:00
1:52 PM,37.0,35.1,93,29.39,10.0,Calm,Calm,-,N/A,,Overcast,0,2012-03-03 18:52:00
2:48 PM,37.4,35.6,93,29.37,10.0,SSE,5.8,-,N/A,,Overcast,160,2012-03-03 19:48:00
2:52 PM,37.0,36.0,96,29.39,10.0,SSE,5.8,-,N/A,,Overcast,160,2012-03-03 19:52:00
3:52 PM,37.9,37.0,97,29.40,10.0,South,6.9,-,N/A,,Overcast,180,2012-03-03 20:52:00
4:52 PM,37.9,37.0,97,29.42,8.0,South,6.9,-,N/A,,Overcast,180,2012-03-03 21:52:00
5:27 PM,37.4,37.4,100,29.43,1.8,South,6.9,-,N/A,,Overcast,180,2012-03-03 22:27:00
5:34 PM,37.4,37.4,100,29.43,1.0,South,6.9,-,N/A,,Overcast,170,2012-03-03 22:34:00
5:52 PM,37.0,37.0,100,29.46,0.8,SSE,4.6,-,N/A,,Overcast,160,2012-03-03 22:52:00
6:52 PM,35.1,35.1,100,29.49,0.2,Calm,Calm,-,N/A,Fog,Fog,0,2012-03-03 23:52:00
7:52 PM,35.1,35.1,100,29.53,0.2,WNW,3.5,-,N/A,Fog,Fog,300,2012-03-04 00:52:00
8:52 PM,33.1,33.1,100,29.56,0.2,Calm,Calm,-,N/A,Fog,Fog,0,2012-03-04 01:52:00
9:49 PM,30.2,30.2,100,29.56,1.2,SSW,4.6,-,N/A,,Mostly Cloudy,200,2012-03-04 02:49:00
9:52 PM,30.0,30.0,100,29.58,1.8,South,4.6,-,N/A,,Mostly Cloudy,190,2012-03-04 02:52:00
9:55 PM,30.2,30.2,100,29.56,3.0,South,4.6,-,N/A,,Mostly Cloudy,190,2012-03-04 02:55:00
10:02 PM,30.2,30.2,100,29.56,7.0,Calm,Calm,-,N/A,,Scattered Clouds,0,2012-03-04 03:02:00
10:35 PM,28.4,28.4,100,29.57,1.8,Calm,Calm,-,N/A,,Clear,0,2012-03-04 03:35:00
10:38 PM,28.4,28.4,100,29.57,1.0,North,3.5,-,N/A,,Clear,350,2012-03-04 03:38:00
10:52 PM,28.9,28.0,96,29.60,0.5,Calm,Calm,-,N/A,Fog,Light Freezing Fog,0,2012-03-04 03:52:00
10:59 PM,28.4,28.4,100,29.58,1.2,Calm,Calm,-,N/A,,Clear,0,2012-03-04 03:59:00
11:03 PM,28.4,28.4,100,29.58,2.5,Calm,Calm,-,N/A,,Clear,0,2012-03-04 04:03:00
11:10 PM,28.4,28.4,100,29.58,8.0,ESE,4.6,-,N/A,,Clear,120,2012-03-04 04:10:00
11:52 PM,28.0,26.1,92,29.62,8.0,Calm,Calm,-,N/A,,Clear,0,2012-03-04 04:52:00